Yuma MCAS, AZ

11:05 AM MST on September 19, 2017 (GMT -0700)
Yuma Marine Corps Air Station

Weather History for KNYL - December, 2013

Change the Weather History Date:

Saturday, December 7, 2013

  Actual Average Record
Temperature  
Mean Temperature 53 °F 58 °F  
Max Temperature 63 °F 69 °F 83 °F (1958)
Min Temperature 42 °F 47 °F 30 °F (1978)
Degree Days  
Heating Degree Days 12 7  
Month to date heating degree days 48 43  
Since 1 July heating degree days 87 111  
Cooling Degree Days 0 0  
Month to date cooling degree days 0 0  
Year to date cooling degree days 4805 4649  
Growing Degree Days 2 (Base 50)    
Moisture  
Dew Point 31 °F    
Average Humidity 45    
Maximum Humidity 62    
Minimum Humidity 27    
Precipitation  
Precipitation 0.00 in 0.01 in 0.56 in (1886)
Month to date precipitation 0.00 0.09  
Year to date precipitation 3.31 3.14  
Sea Level Pressure  
Sea Level Pressure 30.03 in    
Wind  
Wind Speed 7 mph (SSW)    
Max Wind Speed 23 mph    
Max Gust Speed 26 mph    
Visibility 10 miles    
Events      
T = Trace of Precipitation, MM = Missing Value Source: NWS Daily Summary

Daily Weather History Graph

Daily Weather History Graph

Search for Another Location

Airport or City:

Trip Planner

Search our weather history database for the weather conditions in past years. The results will help you decide how hot, cold, wet, or windy it might be!

Date:

Astronomy

Dec. 07, 2013 Rise Set
Actual Time 7:27 AM MST 5:32 PM MST
Civil Twilight 7:00 AM MST 5:59 PM MST
Nautical Twilight 6:30 AM MST 6:30 PM MST
Astronomical Twilight 6:00 AM MST 7:00 PM MST
Moon 11:26 AM MST (12/7) 11:05 PM MST (12/7)
Length of Visible Light 10h 58m
Length of Day
10h 04m
Waxing Crescent, 30% of the Moon is Illuminated
Dec 7
Waxing Crescent
Dec 9
First Quarter
Dec 17
Full
Dec 25
Last Quarter
Jan 1
New

Hourly Weather History & Observations

Time (MST) Temp. Windchill Dew Point Humidity Pressure Visibility Wind Dir Wind Speed Gust Speed Precip Events Conditions
12:57 AM 46.0 °F 44.8 °F 30.0 °F 54% 30.09 in 10.0 mi NE 3.5 mph - N/A   Clear
1:57 AM 44.1 °F 42.5 °F 30.9 °F 60% 30.08 in 10.0 mi North 3.5 mph - N/A   Clear
2:57 AM 44.1 °F - 30.0 °F 58% 30.09 in 10.0 mi Calm Calm - N/A   Clear
3:57 AM 44.1 °F 42.5 °F 30.0 °F 58% 30.08 in 10.0 mi NE 3.5 mph - N/A   Clear
4:57 AM 43.0 °F - 30.9 °F 62% 30.06 in 10.0 mi Calm Calm - N/A   Clear
5:57 AM 43.0 °F - 30.0 °F 60% 30.05 in 10.0 mi Calm Calm - N/A   Scattered Clouds
6:57 AM 42.1 °F - 30.0 °F 62% 30.05 in 10.0 mi Calm Calm - N/A   Partly Cloudy
7:57 AM 44.1 °F 42.5 °F 30.0 °F 58% 30.07 in 10.0 mi NE 3.5 mph - N/A   Partly Cloudy
8:57 AM 46.9 °F - 30.9 °F 54% 30.07 in 10.0 mi ENE 4.6 mph - N/A   Partly Cloudy
9:57 AM 52.0 °F - 30.0 °F 43% 30.08 in 10.0 mi Calm Calm - N/A   Partly Cloudy
10:57 AM 55.9 °F - 32.0 °F 40% 30.09 in 10.0 mi WSW 4.6 mph - N/A   Partly Cloudy
11:57 AM 57.9 °F - 33.1 °F 39% 30.07 in 10.0 mi SW 6.9 mph - N/A   Partly Cloudy
12:57 PM 60.1 °F - 30.9 °F 33% 30.04 in 10.0 mi WSW 8.1 mph - N/A   Partly Cloudy
1:57 PM 61.0 °F - 28.0 °F 29% 30.00 in 10.0 mi SW 11.5 mph - N/A   Partly Cloudy
2:57 PM 62.1 °F - 28.0 °F 28% 29.99 in 10.0 mi SW 13.8 mph - N/A   Partly Cloudy
3:57 PM 63.0 °F - 28.0 °F 27% 29.97 in 10.0 mi SW 12.7 mph - N/A   Scattered Clouds
4:57 PM 61.0 °F - 28.0 °F 29% 29.96 in 10.0 mi South 11.5 mph - N/A   Scattered Clouds
5:57 PM 59.0 °F - 27.0 °F 29% 29.96 in 10.0 mi South 11.5 mph - N/A   Mostly Cloudy
6:57 PM 59.0 °F - 28.9 °F 32% 29.96 in 10.0 mi South 12.7 mph - N/A   Mostly Cloudy
7:57 PM 57.9 °F - 33.1 °F 39% 29.96 in 10.0 mi South 13.8 mph - N/A   Mostly Cloudy
8:57 PM 57.9 °F - 34.0 °F 41% 29.97 in 10.0 mi SSW 19.6 mph - N/A   Scattered Clouds
9:57 PM 55.9 °F - 36.0 °F 47% 29.99 in 10.0 mi WSW 9.2 mph - N/A   Mostly Cloudy
10:57 PM 54.0 °F - 37.9 °F 55% 30.02 in 10.0 mi SW 9.2 mph - N/A   Mostly Cloudy
11:57 PM 53.1 °F - 37.0 °F 55% 30.01 in 10.0 mi South 4.6 mph - N/A   Clear